{"data":{"norad_id":40894,"intl_designator":"2015-047A","name":"GAOFEN-9 01","alt_names":[],"object_type":"PAYLOAD","status":"ACTIVE","operator":null,"country":"PRC","launch_date":"2015-09-14","launch_site_code":"JSC","launch_vehicle":null,"mission":null,"orbit_class":"UNKNOWN","rcs_meters":3.683,"size_class":null,"mass_kg":null,"dimensions":null,"purposes":["earth_obs"],"wikipedia_slug":null,"has_3d_model":false,"image_url":null,"decayed_at":null,"tle_current":{"epoch":"2026-05-25T04:29:35.814048Z","epoch_age_seconds":54931,"freshness":"FRESH","line1":"1 40894U 15047A   26145.18722007  .00000700  00000+0  92256-4 0  9991","line2":"2 40894  97.6290 181.9258 0026516 212.8060 147.1509 14.82833048576784","mean_motion":14.82833048,"eccentricity":0.0026516,"inclination_deg":97.629,"raan_deg":181.9258,"arg_perigee_deg":212.806,"mean_anomaly_deg":147.1509,"bstar":9.2256e-5,"rev_number":57678,"period_min":97.111404547007,"perigee_km":601.83851018519,"apogee_km":638.95312943521,"semimajor_km":6998.5328198102,"source":"CELESTRAK","updated_at":"2026-05-25T13:38:12.789562Z"}}}